Notices

What's New in latest Release from April 7th, 2021:

- Updated Glossary, including Speed of Maximum Gust, and Total Hourly Precipitation

- Updated national and regional climate services offices contacts and prices information

- Addition of station inventory lists for 1981-2010, 1971-2000, and 1961-1990 Normals.

If you haven't already, please take our survey and provide feedback about our website: https://eccc.sondage-survey.ca/f/LanguageSelection.aspx?s=442ca660-fcf1-47c0-95a9-59707d6fd709

Hourly Data Report for April 06, 2016

MIRAMICHI RCS
NEW BRUNSWICK

47°00'34.000" N
65°27'54.000" W
33.00 m
8100989
71744
ACQ

Download Data

Hourly Data (April 2016)
Hourly Data Report for April 6, 2016
TIME
LST
Temp Definition
°C
Dew Point Definition
°C
Rel Hum Definition
%
Precip. Amount Definition
mm

Wind Dir Definition
10's deg

Wind Spd Definition
km/h
Visibility Definition
km
Stn Press Definition
kPa
Hmdx Definition


Wind Chill Definition


Weather Definition


00:00 -10.6 -18.0 54 0.0 25 8   101.79   -15 LegendNANA
01:00 -10.5 -18.1 53 0.0 26 12   101.75   -17 LegendNANA
02:00 -11.1 -18.5 54 0.0 25 11   101.74   -17 LegendNANA
03:00 -11.7 -18.2 58 0.0 26 11   101.75   -18 LegendNANA
04:00 -12.2 -18.1 62 0.0 26 12   101.77   -19 LegendNANA
05:00 -13.0 -18.1 65 0.0 25 10   101.81   -19 LegendNANA
06:00 -12.7 -18.1 64 0.0 26 10   101.85   -18 LegendNANA
07:00 -11.5 -17.9 59 0.0 25 14   101.88   -18 LegendNANA
08:00 -9.5 -17.6 51 0.0 27 14   101.86   -16 LegendNANA
09:00 -8.0 -17.4 47 0.0 29 19   101.83   -15 LegendNANA
10:00 -6.0 -17.6 40 0.0 28 22   101.78   -13 LegendNANA
11:00 -4.2 -17.5 35 0.0 29 19   101.74   -10 LegendNANA
12:00 -2.7 -17.7 31 0.0 29 21   101.72   -9 LegendNANA
13:00 -1.2 -16.0 31 0.0 28 20   101.66   -7 LegendNANA
14:00 0.2 -15.8 29 0.0 28 20   101.56     LegendNANA
15:00 0.5 -15.2 30 0.0 27 26   101.48     LegendNANA
16:00 1.4 -14.6 29 0.0 26 24   101.50     LegendNANA
17:00 1.5 -14.4 30 0.0 26 23   101.47     LegendNANA
18:00 1.4 -13.3 32 0.0 26 15   101.44     LegendNANA
19:00 0.1 -12.9 37 0.0 19 9   101.41     LegendNANA
20:00 -0.3 -12.4 39 0.0 18 12   101.42   -4 LegendNANA
21:00 -0.2 -13.0 37 0.0 20 14   101.41   -4 LegendNANA
22:00 0.0 -10.4 45 0.0 20 25   101.43   -6 LegendNANA
23:00 0.1 -9.8 48 0.0 21 25   101.44     LegendNANA

Notes on Data Quality.

Legend

  • E = Estimated
  • M = Missing
  • NA = Not Available*
  • [empty] = Indicates an unobserved value
Date modified: